STARLINK-36881

Last updated on Fri Mar 27 2026 00:02:06 GMT+0000 (Coordinated Universal Time)

1 67962U 26038B 26085.50002314 .00057718 00000+0 17766-2 0 9991 2 67962 97.2854 96.3159 0001307 89.4787 210.1111 15.33444305 5907
UTC large
Height (km)
Speed (km/s)
/
Latitude / Longitude
Inclination (degrees)
Orbital Period (minutes)
Azimuth
Elevation
Range (km)
Doppler Factor

Next 0 passes for location: London (51.5072 / 0.1276)

Sorry there are no passes over London.